Time,TemperatureF,DewpointF,PressureIn,WindDirection,WindDirectionDegrees,WindSpeedMPH,WindSpeedGustMPH,Humidity,HourlyPrecipIn,Conditions,Clouds,dailyrainin,SolarRadiationWatts/m^2,SoftwareType,DateUTC
2013-03-31 00:01:00,41.0,15.0,-100.00,WSW,238,7.0,11.0,35,0.00,,,0.00,0.000000,,2013-03-31 06:01:00,
2013-03-31 00:33:00,41.0,15.0,-100.00,WSW,249,1.0,10.0,35,0.00,,,-99.99,0.000000,,2013-03-31 06:33:00,
2013-03-31 01:33:00,43.0,18.0,-100.00,SSW,206,5.0,9.0,36,-99.99,,,0.00,0.000000,,2013-03-31 07:33:00,
2013-03-31 02:22:00,41.0,17.0,-100.00,WNW,288,6.0,14.0,37,-99.99,,,0.00,0.000000,,2013-03-31 08:22:00,
2013-03-31 02:32:00,41.0,17.0,-100.00,WNW,288,6.0,14.0,37,-99.99,,,0.00,0.000000,,2013-03-31 08:32:00,
2013-03-31 03:33:00,40.0,16.0,-100.00,West,267,4.0,14.0,37,-99.99,,,0.00,0.000000,,2013-03-31 09:33:00,
2013-03-31 04:33:00,37.0,15.0,-100.00,WSW,238,2.0,9.0,40,-99.99,,,0.00,0.000000,,2013-03-31 10:33:00,
2013-03-31 04:42:00,37.0,15.0,-100.00,WSW,238,2.0,9.0,40,-99.99,,,0.00,0.000000,,2013-03-31 10:42:00,
2013-03-31 04:53:00,37.0,15.0,-100.00,WSW,238,2.0,9.0,40,-99.99,,,0.00,0.000000,,2013-03-31 10:53:00,
2013-03-31 05:02:00,37.0,15.0,-100.00,WSW,238,2.0,9.0,40,-99.99,,,0.00,0.000000,,2013-03-31 11:02:00,
2013-03-31 05:33:00,34.0,14.0,-100.00,ESE,119,0.0,8.0,43,0.00,,,0.00,0.000000,,2013-03-31 11:33:00,
2013-03-31 05:42:00,34.0,14.0,-100.00,ESE,119,0.0,8.0,43,0.00,,,0.00,0.000000,,2013-03-31 11:42:00,
2013-03-31 05:52:00,34.0,14.0,-100.00,ESE,119,0.0,8.0,43,0.00,,,0.00,0.000000,,2013-03-31 11:52:00,
2013-03-31 06:02:00,34.0,14.0,-100.00,ESE,119,0.0,8.0,43,0.00,,,0.00,0.000000,,2013-03-31 12:02:00,
2013-03-31 06:22:00,34.0,15.0,-100.00,SSW,213,3.0,9.0,45,0.00,,,0.00,0.000000,,2013-03-31 12:22:00,
2013-03-31 06:33:00,34.0,15.0,-100.00,SSW,213,3.0,9.0,45,0.00,,,0.00,0.000000,,2013-03-31 12:33:00,
2013-03-31 07:02:00,34.0,15.0,-100.00,SSW,213,3.0,9.0,45,0.00,,,0.00,0.000000,,2013-03-31 13:02:00,
2013-03-31 07:32:00,34.0,15.0,-100.00,WSW,255,4.0,9.0,45,0.00,,,0.00,0.000000,,2013-03-31 13:32:00,
2013-03-31 08:02:00,34.0,15.0,-100.00,WSW,255,4.0,9.0,45,0.00,,,0.00,0.000000,,2013-03-31 14:02:00,
2013-03-31 08:23:00,36.0,17.0,-100.00,SW,232,5.0,13.0,46,0.00,,,0.00,45.000000,,2013-03-31 14:23:00,
2013-03-31 08:33:00,36.0,17.0,-100.00,SW,232,5.0,13.0,46,0.00,,,0.00,45.000000,,2013-03-31 14:33:00,
2013-03-31 09:34:00,46.0,19.0,-100.00,ESE,122,3.0,8.0,34,-99.99,,,0.00,241.000000,,2013-03-31 15:34:00,
2013-03-31 10:33:00,49.0,19.0,-100.00,ESE,119,4.0,7.0,30,-99.99,,,0.00,439.000000,,2013-03-31 16:33:00,
2013-03-31 11:32:00,53.0,21.0,-100.00,ESE,113,4.0,7.0,28,-99.99,,,0.00,647.000000,,2013-03-31 17:32:00,
2013-03-31 12:02:00,53.0,21.0,-100.00,ESE,113,4.0,7.0,28,-99.99,,,0.00,647.000000,,2013-03-31 18:02:00,
2013-03-31 12:33:00,54.0,21.0,-100.00,NE,54,8.0,10.0,27,0.00,,,0.00,521.000000,,2013-03-31 18:33:00,
2013-03-31 12:42:00,54.0,21.0,-100.00,NE,54,8.0,10.0,27,0.00,,,0.00,521.000000,,2013-03-31 18:42:00,
2013-03-31 12:53:00,54.0,21.0,-100.00,NE,54,8.0,10.0,27,0.00,,,0.00,521.000000,,2013-03-31 18:53:00,
2013-03-31 13:02:00,54.0,21.0,-100.00,NE,54,8.0,10.0,27,0.00,,,0.00,521.000000,,2013-03-31 19:02:00,
2013-03-31 13:33:00,54.0,20.0,-100.00,NE,55,13.0,14.0,26,0.00,,,0.00,538.000000,,2013-03-31 19:33:00,
2013-03-31 13:43:00,54.0,20.0,-100.00,NE,55,13.0,14.0,26,0.00,,,0.00,538.000000,,2013-03-31 19:43:00,
2013-03-31 13:54:00,54.0,20.0,-100.00,NE,55,13.0,14.0,26,0.00,,,0.00,538.000000,,2013-03-31 19:54:00,
2013-03-31 14:02:00,54.0,20.0,-100.00,NE,55,13.0,14.0,26,0.00,,,0.00,538.000000,,2013-03-31 20:02:00,
2013-03-31 14:34:00,56.0,20.0,-100.00,NE,50,15.0,19.0,24,0.00,,,0.00,702.000000,,2013-03-31 20:34:00,
2013-03-31 14:43:00,56.0,20.0,-100.00,NE,50,15.0,19.0,24,0.00,,,0.00,702.000000,,2013-03-31 20:43:00,
2013-03-31 14:52:00,56.0,20.0,-100.00,NE,50,15.0,19.0,24,0.00,,,0.00,702.000000,,2013-03-31 20:52:00,
2013-03-31 15:02:00,56.0,20.0,-100.00,NE,50,15.0,19.0,24,0.00,,,0.00,702.000000,,2013-03-31 21:02:00,
2013-03-31 15:34:00,55.0,18.0,-100.00,NE,52,13.0,22.0,23,0.00,,,0.00,909.000000,,2013-03-31 21:34:00,
2013-03-31 15:43:00,55.0,18.0,-100.00,NE,52,13.0,22.0,23,0.00,,,0.00,909.000000,,2013-03-31 21:43:00,
2013-03-31 15:53:00,55.0,18.0,-100.00,NE,52,13.0,22.0,23,0.00,,,0.00,909.000000,,2013-03-31 21:53:00,
2013-03-31 16:24:00,56.0,19.0,-100.00,NE,54,15.0,23.0,23,0.00,,,0.00,850.000000,,2013-03-31 22:24:00,
2013-03-31 16:33:00,56.0,19.0,-100.00,NE,54,15.0,23.0,23,0.00,,,0.00,850.000000,,2013-03-31 22:33:00,
2013-03-31 16:43:00,56.0,19.0,-100.00,NE,54,15.0,23.0,23,0.00,,,0.00,850.000000,,2013-03-31 22:43:00,
2013-03-31 16:53:00,56.0,19.0,-100.00,NE,54,15.0,23.0,23,0.00,,,0.00,850.000000,,2013-03-31 22:53:00,
2013-03-31 17:02:00,56.0,19.0,-100.00,NE,54,15.0,23.0,23,0.00,,,0.00,850.000000,,2013-03-31 23:02:00,
2013-03-31 17:33:00,56.0,19.0,-100.00,NE,45,13.0,25.0,23,0.00,,,0.00,672.000000,,2013-03-31 23:33:00,
2013-03-31 17:43:00,56.0,19.0,-100.00,NE,45,13.0,25.0,23,0.00,,,0.00,672.000000,,2013-03-31 23:43:00,
2013-03-31 17:53:00,56.0,19.0,-100.00,NE,45,13.0,25.0,23,0.00,,,0.00,672.000000,,2013-03-31 23:53:00,
2013-03-31 18:02:00,56.0,19.0,-100.00,NE,45,13.0,25.0,23,0.00,,,0.00,672.000000,,2013-04-01 00:02:00,
2013-03-31 18:22:00,56.0,19.0,-100.00,NE,41,10.0,24.0,23,0.00,,,0.00,510.000000,,2013-04-01 00:22:00,
2013-03-31 18:32:00,56.0,19.0,-100.00,NE,41,10.0,24.0,23,0.00,,,0.00,510.000000,,2013-04-01 00:32:00,
2013-03-31 18:43:00,56.0,19.0,-100.00,NE,41,10.0,24.0,23,0.00,,,0.00,510.000000,,2013-04-01 00:43:00,
2013-03-31 18:52:00,56.0,19.0,-100.00,NE,41,10.0,24.0,23,0.00,,,0.00,510.000000,,2013-04-01 00:52:00,
2013-03-31 19:02:00,56.0,19.0,-100.00,NE,41,10.0,24.0,23,0.00,,,0.00,510.000000,,2013-04-01 01:02:00,
2013-03-31 19:33:00,53.0,18.0,-100.00,North,350,10.0,18.0,25,0.00,,,0.00,100.000000,,2013-04-01 01:33:00,
2013-03-31 19:43:00,53.0,18.0,-100.00,North,350,10.0,18.0,25,0.00,,,0.00,100.000000,,2013-04-01 01:43:00,
2013-03-31 19:52:00,53.0,18.0,-100.00,North,350,10.0,18.0,25,0.00,,,0.00,100.000000,,2013-04-01 01:52:00,
2013-03-31 20:02:00,53.0,18.0,-100.00,North,350,10.0,18.0,25,0.00,,,0.00,100.000000,,2013-04-01 02:02:00,
2013-03-31 20:33:00,47.0,17.0,-100.00,NW,326,8.0,15.0,30,0.00,,,0.00,19.000000,,2013-04-01 02:33:00,
2013-03-31 21:35:00,45.0,17.0,-100.00,NNW,340,6.0,13.0,32,0.00,,,-99.99,0.000000,,2013-04-01 03:35:00,
2013-03-31 21:43:00,45.0,17.0,-100.00,NNW,340,6.0,13.0,32,0.00,,,-99.99,0.000000,,2013-04-01 03:43:00,
2013-03-31 21:53:00,45.0,17.0,-100.00,NNW,340,6.0,13.0,32,0.00,,,-99.99,0.000000,,2013-04-01 03:53:00,
2013-03-31 22:02:00,45.0,17.0,-100.00,NNW,340,6.0,13.0,32,0.00,,,-99.99,0.000000,,2013-04-01 04:02:00,
2013-03-31 22:33:00,41.0,17.0,-100.00,WSW,256,4.0,14.0,38,0.00,,,0.00,0.000000,,2013-04-01 04:33:00,
2013-03-31 22:43:00,41.0,17.0,-100.00,WSW,256,4.0,14.0,38,0.00,,,0.00,0.000000,,2013-04-01 04:43:00,
2013-03-31 22:53:00,41.0,17.0,-100.00,WSW,256,4.0,14.0,38,0.00,,,0.00,0.000000,,2013-04-01 04:53:00,
2013-03-31 23:02:00,41.0,17.0,-100.00,WSW,256,4.0,14.0,38,0.00,,,0.00,0.000000,,2013-04-01 05:02:00,
2013-03-31 23:33:00,40.0,17.0,-100.00,WSW,257,4.0,8.0,39,0.00,,,0.00,0.000000,,2013-04-01 05:33:00,
2013-03-31 23:43:00,40.0,17.0,-100.00,WSW,257,4.0,8.0,39,0.00,,,0.00,0.000000,,2013-04-01 05:43:00,
2013-03-31 23:53:00,40.0,17.0,-100.00,WSW,257,4.0,8.0,39,0.00,,,0.00,0.000000,,2013-04-01 05:53:00,